SCP
1 1 2 3 3 2 1 0 0 0 0 0 0 0 0 0 0 0 1 1 1 1 1 1 1 1 0 0 0 0 0 0 0 0 0 0 0 0 0 0 0 0 0 0 0 0 0 0 0
1 1 2 3 2 1 0 0 0 0 0 0 0 0 0 0 0 0 1 1 1 1 1 1 1 1 1 0 0 0 0 0 0 0 0 0 0 0 0 0 0 0 0 0 0 0 0 0 0
1 1 2 2 2 1 0 0 0 0 0 0 0 0 0 0 0 0 1 1 1 1 1 1 1 1 1 0 0 0 0 0 0 0 0 0 0 0 0 0 0 0 0 0 0 0 0 0 0
2 2 2 2 1 0 0 0 0 0 0 0 0 1 0 0 0 0 1 1 1 1 1 1 1 1 1 0 0 0 0 0 0 0 0 0 0 0 0 0 0 0 0 0 0 0 0 0 0
2 3 2 1 0 0 0 0 0 0 0 0 1 1 1 0 0 0 1 1 1 2 1 1 1 1 1 1 0 0 0 0 0 0 0 0 0 0 0 0 0 0 0 0 0 0 0 0 0
3 2 2 1 0 0 0 0 0 0 0 1 1 1 1 0 0 0 1 1 2 2 2 1 1 1 1 1 1 0 0 0 0 0 0 0 0 0 0 0 0 0 0 0 0 0 0 0 0
3 2 1 0 0 0 0 0 0 0 0 1 1 1 1 1 1 1 1 2 2 3 2 2 1 1 1 1 0 0 0 0 0 0 0 0 0 0 0 0 0 0 0 0 0 0 0 0 0
2 1 1 0 0 0 0 0 0 0 0 0 1 1 1 1 1 1 1 2 3 4 3 3 2 2 1 1 1 0 0 0 0 0 0 0 0 0 0 0 0 0 0 0 0 0 0 0 0
1 1 0 0 0 0 0 0 0 0 0 1 1 2 2 2 2 2 2 4 6 6 6 5 4 2 2 1 1 1 0 1 0 0 0 0 0 0 0 0 0 0 0 0 1 1 1 0 0
0 0 0 0 0 0 0 0 0 0 1 1 2 3 3 2 2 2 3 6 9 9 7 6 5 3 2 1 1 1 1 1 1 1 0 0 0 0 0 0 0 0 0 0 1 1 1 0 0
0 0 0 0 0 0 0 0 0 0 1 2 3 3 3 2 2 2 4 7 10 10 7 6 5 3 2 2 1 1 1 1 1 1 1 1 1 1 1 1 1 0 0 0 1 1 1 0 0
0 0 0 0 0 0 0 0 0 0 1 2 3 3 3 2 2 2 4 7 9 8 7 6 5 4 3 2 2 1 1 1 1 1 1 1 1 1 1 1 1 0 0 0 0 0 0 0 0
0 0 0 0 0 0 0 0 0 1 1 2 3 3 2 2 2 3 4 6 7 6 6 6 5 4 3 3 3 2 1 1 2 2 2 1 1 1 1 1 1 1 0 0 0 0 0 0 0
0 0 0 0 0 0 0 0 1 1 1 2 3 3 2 2 3 3 4 5 5 6 6 6 6 5 4 3 3 2 2 1 2 3 2 2 1 2 2 2 1 1 1 1 1 1 1 0 0
0 0 0 0 0 0 0 1 1 1 2 3 3 3 3 3 3 4 4 4 5 4 4 5 5 5 4 3 3 2 2 2 2 3 3 2 2 2 2 2 1 1 1 1 1 1 1 1 1
0 0 0 0 0 0 0 1 1 2 2 2 3 3 4 4 4 4 4 4 4 4 4 4 4 4 4 4 3 2 2 2 3 3 3 3 2 3 3 2 2 1 1 1 1 1 1 1 1
0 0 0 0 0 0 0 1 1 1 1 2 3 4 5 5 5 5 5 5 5 5 6 6 6 6 5 4 3 3 3 3 3 4 4 3 3 3 3 2 2 2 1 1 1 1 1 1 1
0 0 0 0 0 0 0 1 1 1 1 2 3 5 6 6 6 6 6 6 6 7 9 9 7 6 6 5 4 3 4 4 4 4 4 4 4 4 3 3 2 2 2 2 2 2 1 1 1
0 0 0 0 0 0 1 1 1 1 1 2 3 5 6 6 6 7 7 7 6 7 9 9 7 6 5 5 5 5 5 4 4 4 4 3 3 4 4 3 3 3 2 2 2 2 2 2 1
0 0 0 0 0 0 1 1 1 1 1 2 3 4 5 6 6 7 7 7 6 6 7 8 7 6 6 6 6 6 6 5 4 4 3 3 3 4 4 3 3 3 3 3 2 3 3 2 2
0 0 0 0 0 0 1 1 1 1 1 1 2 4 5 5 6 6 6 6 6 6 7 8 9 9 8 7 6 6 6 6 5 4 4 3 3 4 4 3 3 3 3 3 2 3 2 2 2
0 0 0 0 0 0 0 0 1 2 1 1 2 3 5 6 6 5 5 6 6 6 7 9 11 11 9 7 6 5 5 6 5 4 4 4 4 4 4 3 3 3 3 2 3 3 2 2 2
0 0 0 0 0 0 0 0 1 2 2 2 2 4 5 6 6 6 6 6 6 6 7 10 12 13 11 8 6 5 5 6 5 4 4 4 4 4 3 3 3 4 3 3 3 3 3 2 2
0 0 0 0 0 0 0 0 1 2 2 2 4 4 5 5 7 8 8 7 7 7 8 10 13 14 13 10 7 6 6 5 4 4 4 4 4 3 3 3 3 4 3 3 3 3 3 2 2
0 0 0 0 0 0 0 1 1 2 2 4 4 4 4 5 8 10 9 8 9 8 8 9 12 14 14 11 8 6 5 4 4 4 4 4 4 3 3 3 3 3 3 3 3 3 3 2 2
0 0 0 0 0 0 0 1 2 3 3 3 3 3 4 5 8 9 9 9 9 8 8 8 10 12 11 8 6 4 4 4 4 4 4 4 4 3 3 2 3 3 2 2 3 3 3 3 3
0 0 0 0 0 0 1 1 3 4 3 3 3 3 3 5 6 7 8 7 7 7 6 7 7 7 6 5 4 3 3 4 4 4 3 3 3 3 2 2 2 2 2 3 3 3 3 3 3
0 0 0 0 0 0 1 1 3 3 3 3 2 2 2 3 5 6 6 6 6 5 5 5 5 4 4 3 3 3 4 4 4 4 3 3 3 2 2 3 3 3 3 3 3 3 3 3 3
0 0 0 0 0 0 1 1 3 3 3 2 2 2 2 3 3 4 5 6 5 5 5 5 5 4 3 3 3 3 4 4 4 4 3 3 3 2 2 3 3 3 3 3 3 2 2 3 3
0 0 0 1 1 0 1 2 3 3 3 2 2 2 3 3 3 4 6 6 5 5 5 5 5 4 3 3 3 4 4 4 4 3 3 3 2 2 2 3 3 3 3 3 3 2 2 3 3
Wind_Speed
9 12 10 6 3 1 8 13 14 14 14 13 13 12 16 15 11 11 15 22 24 21 18 16 15 15 15 15 14 14 13 13 13 13 13 13 12 12 13 13 13 14 14 14 14 15 14 14 14
10 13 9 4 1 3 9 12 14 12 11 11 13 15 17 16 15 16 17 22 23 21 17 16 16 16 15 14 14 13 13 13 12 12 12 12 12 12 12 13 13 13 13 14 14 14 14 13 12
12 14 6 3 1 6 9 10 12 11 9 11 14 16 14 13 14 15 18 22 21 19 17 17 17 16 15 14 13 13 13 12 12 12 12 12 12 12 12 13 13 13 13 13 14 13 13 12 10
9 7 5 3 4 8 10 10 11 10 10 11 12 13 12 10 13 18 20 21 21 19 18 17 17 16 15 14 13 13 12 12 12 12 12 11 12 12 12 13 13 13 13 13 13 13 12 11 9
8 7 5 2 4 8 10 10 10 10 10 13 16 16 12 11 17 19 18 20 20 19 18 17 17 16 15 14 13 12 12 12 11 11 11 11 12 12 12 12 12 13 13 13 12 12 11 9 7
6 7 4 1 3 6 9 9 10 8 10 11 16 16 11 11 16 17 17 17 19 20 18 16 16 16 15 14 13 12 12 11 11 11 11 11 11 11 12 12 12 12 12 12 11 11 10 8 6
9 8 7 2 4 5 8 8 9 8 9 9 15 14 10 14 14 15 15 15 18 20 18 15 14 14 14 14 13 13 12 11 11 11 11 11 11 11 12 11 11 11 11 11 11 10 9 7 5
8 8 8 0 4 6 7 7 8 9 8 7 11 11 12 15 15 15 14 14 16 18 17 15 14 13 12 12 13 13 12 12 11 11 11 11 11 11 12 11 10 11 10 10 10 9 8 7 4
9 8 6 2 3 6 7 6 8 9 8 9 11 15 19 20 18 15 13 13 13 15 15 15 15 13 13 12 13 12 12 11 11 10 11 11 8 9 9 11 11 10 10 9 9 9 8 7 5
7 7 4 4 4 5 5 4 4 6 9 10 11 16 20 19 17 16 14 14 13 13 13 12 14 13 12 11 10 8 9 9 8 7 9 6 4 5 8 12 11 10 9 9 8 8 8 6 4
9 8 6 4 4 3 0 2 5 6 7 10 11 15 17 18 16 15 14 12 12 12 11 12 11 10 10 8 9 6 5 6 6 7 7 5 5 5 7 6 7 6 8 6 7 7 5 5 3
10 8 7 4 3 4 3 1 2 5 8 14 17 16 17 18 16 15 14 13 12 10 10 11 12 8 6 8 7 6 5 5 5 6 7 5 3 4 5 4 5 5 4 4 4 3 4 2 2
10 10 9 7 6 5 5 4 1 5 11 16 18 17 17 17 16 14 13 12 12 9 9 9 10 7 5 5 4 5 5 6 5 5 5 5 4 4 4 3 3 4 4 4 3 3 3 2 2
10 10 10 9 8 7 7 5 4 5 11 15 17 17 17 16 16 15 13 12 12 10 9 9 10 8 6 4 2 2 4 4 5 5 6 5 4 4 4 4 3 3 3 3 3 3 3 2 2
11 11 12 12 10 9 7 7 6 5 10 12 15 15 15 14 14 14 14 13 13 11 9 9 9 9 7 7 5 3 3 5 4 5 6 5 4 5 4 4 3 3 3 3 2 2 2 3 3
11 13 14 13 12 10 8 9 8 8 9 11 12 13 13 12 14 13 14 12 12 11 10 9 10 11 9 7 6 4 4 4 4 5 6 6 4 5 4 4 4 3 3 3 2 2 2 2 2
14 14 15 12 11 9 9 7 7 8 9 10 11 13 13 13 13 13 13 13 11 11 10 10 8 10 10 8 5 4 3 3 3 4 5 6 6 6 4 3 3 4 3 3 4 3 2 2 1
12 13 12 10 9 9 9 8 7 9 8 9 11 12 13 13 12 13 13 13 11 10 10 10 9 9 8 7 5 4 3 3 3 3 5 7 6 6 5 4 4 4 3 3 2 2 2 1 2
16 13 10 6 5 6 8 8 7 6 6 7 9 10 11 13 12 12 12 12 12 11 11 10 10 9 7 6 7 6 5 4 3 4 6 8 7 7 5 4 5 4 3 4 4 3 3 2 2
15 15 12 7 4 5 7 9 8 6 7 6 7 9 10 12 12 11 11 12 11 11 11 10 10 10 9 7 5 5 5 4 5 4 5 7 7 7 7 4 5 5 3 3 3 3 2 3 3
14 14 12 10 6 7 8 11 9 7 7 7 9 10 12 13 13 13 13 12 12 12 11 10 10 9 9 8 5 4 3 3 4 5 5 6 7 7 6 6 5 5 5 4 4 4 4 3 2
13 13 12 11 9 8 10 10 8 7 10 10 10 10 11 12 12 13 13 12 11 10 10 9 9 8 8 8 8 8 7 6 6 5 5 6 7 7 7 6 6 5 4 5 6 6 4 4 3
13 10 11 11 11 11 11 11 6 6 8 10 9 8 8 10 11 11 11 10 9 9 9 9 9 8 8 8 8 8 7 5 4 4 5 5 6 7 7 7 6 6 5 5 5 4 4 4 4
11 11 9 10 10 13 13 12 7 7 10 9 8 8 7 8 9 10 9 9 8 8 8 9 8 8 8 8 8 8 8 6 6 7 7 6 5 6 7 7 6 6 5 5 5 5 5 4 4
13 10 7 8 9 12 12 11 5 6 6 6 6 7 7 8 9 10 9 9 8 8 8 8 8 7 8 8 8 8 8 8 8 6 7 6 5 6 7 8 6 6 5 5 5 5 5 5 5
15 15 10 8 8 8 9 8 4 7 8 7 8 7 6 8 9 9 8 8 8 8 8 7 8 7 7 7 7 6 7 6 5 6 5 6 5 5 7 7 7 6 6 7 6 5 5 5 5
16 15 16 14 12 8 6 5 4 4 7 8 8 8 6 7 9 10 9 8 8 8 8 7 8 7 6 6 6 6 6 6 6 5 5 5 4 6 6 7 7 7 6 6 5 4 5 4 5
17 15 11 12 10 10 7 8 6 9 7 7 7 8 8 8 9 10 9 8 6 6 6 6 6 6 5 5 5 5 5 4 4 4 5 4 5 5 5 6 7 6 6 6 5 4 4 4 4
16 16 12 8 10 9 6 2 2 8 9 8 7 7 7 8 8 8 8 8 7 7 7 6 6 5 5 4 4 3 3 4 4 4 4 4 3 3 4 5 5 5 5 5 5 4 5 5 4
16 16 14 9 9 10 7 1 3 5 7 9 8 7 8 8 8 8 7 8 7 6 6 6 5 5 5 4 3 3 3 3 3 3 3 3 3 3 3 3 4 4 5 5 5 5 5 5 4
Wind_Direction
238 242 235 251 256 301 67 72 73 68 66 60 57 65 68 62 78 95 114 117 117 121 126 126 124 125 125 124 122 121 118 115 113 110 107 105 104 103 103 102 101 101 100 98 97 96 97 96 96
262 255 241 247 260 73 74 76 76 75 78 77 70 71 76 75 90 108 115 117 120 126 132 127 126 126 126 124 123 123 122 119 117 114 111 109 107 105 104 105 104 104 104 102 101 99 99 99 99
264 265 265 225 153 96 93 90 87 87 83 85 78 66 65 85 101 115 122 123 123 124 122 126 130 128 127 126 125 125 124 123 120 117 114 112 110 108 106 107 107 107 105 104 102 102 102 102 103
261 252 239 248 102 99 99 97 98 94 86 80 84 78 68 82 112 122 128 125 123 125 126 129 131 129 129 129 128 128 127 125 122 120 117 115 114 112 111 110 109 108 108 107 105 105 105 105 107
254 264 258 298 81 97 97 96 92 87 83 86 88 89 83 92 115 126 130 127 131 128 127 133 133 132 133 132 131 130 129 127 124 123 120 118 117 117 116 113 111 111 111 109 109 108 108 110 113
266 263 271 69 71 88 95 94 92 97 91 96 104 102 97 114 124 135 135 136 133 129 129 132 136 137 137 137 136 134 133 131 129 128 127 124 122 120 119 117 115 115 114 114 113 113 113 115 117
263 282 276 168 129 106 99 105 105 99 90 95 104 104 124 134 137 141 138 135 132 129 131 140 142 142 143 143 142 140 139 137 135 135 133 131 128 126 124 122 121 120 120 120 120 120 120 122 129
270 290 288 154 132 111 108 108 107 102 98 97 108 120 141 141 148 143 138 135 133 133 138 146 148 148 151 149 147 145 145 143 143 144 143 141 138 136 135 132 128 128 128 128 128 129 131 135 153
266 274 288 2 116 114 106 104 110 107 94 67 67 115 139 146 150 145 144 142 138 137 143 153 150 156 159 155 149 151 151 151 153 154 155 157 159 151 155 134 137 138 139 139 140 143 148 156 182
247 266 293 21 23 76 100 123 110 109 98 87 82 112 137 148 152 154 155 151 143 143 152 154 152 159 164 154 147 161 164 160 176 163 169 187 172 152 140 137 145 149 151 152 156 162 169 187 188
255 266 304 350 346 9 318 143 138 126 126 135 142 142 149 154 158 161 160 155 148 154 158 151 148 157 162 142 159 169 162 160 185 169 176 182 158 144 134 147 150 160 167 175 163 180 202 201 181
256 275 286 287 290 288 297 313 120 118 128 143 154 155 159 162 165 167 163 158 155 165 161 152 148 156 153 148 161 159 155 165 171 166 182 168 168 153 147 155 164 171 180 176 177 193 207 179 157
249 262 265 271 274 278 282 267 212 122 118 131 147 160 168 167 167 168 163 160 158 169 164 149 144 144 145 131 156 161 155 165 163 158 179 172 165 157 146 152 163 178 167 172 185 189 152 146 161
271 268 269 262 255 254 256 258 230 152 131 139 153 163 170 169 168 167 165 163 163 172 167 149 146 141 143 140 167 152 158 155 152 161 169 182 162 148 140 155 173 180 167 168 170 169 152 178 172
270 272 266 255 244 241 249 258 241 185 148 152 159 165 168 168 171 172 169 168 168 172 166 152 152 150 156 163 186 181 181 165 165 159 159 178 169 148 155 160 181 183 155 150 162 169 172 186 181
254 253 253 242 229 222 225 245 211 196 173 163 163 164 165 168 177 174 169 168 167 171 165 163 172 163 167 173 186 192 196 175 170 158 160 174 170 159 171 172 183 169 155 163 160 193 197 193 179
240 240 246 234 209 213 222 238 198 184 187 171 169 166 168 170 174 171 169 169 169 167 163 167 174 165 172 178 184 205 190 176 171 167 164 170 178 173 186 190 165 170 165 178 191 184 191 179 182
245 235 240 231 186 206 226 235 211 190 201 185 176 172 166 170 173 171 170 169 168 167 165 168 176 171 169 172 178 205 200 183 188 179 167 166 180 183 193 185 176 192 173 176 175 154 165 168 199
274 284 275 247 175 210 235 240 237 196 209 202 180 171 168 170 168 166 170 172 172 170 170 173 180 175 172 178 187 195 194 192 198 199 176 174 187 185 198 198 170 194 185 180 173 169 183 212 203
262 273 276 266 195 227 249 254 250 228 213 212 181 166 170 165 161 165 173 174 175 171 173 176 182 181 184 186 186 192 188 187 196 208 185 182 191 187 196 201 181 186 185 186 182 165 179 227 205
248 256 264 271 239 225 253 253 242 237 226 211 190 177 175 167 166 170 178 181 178 176 177 182 182 181 187 183 183 194 180 191 198 198 191 193 192 195 203 184 199 187 191 186 189 181 192 220 224
241 248 261 270 262 251 244 256 234 212 215 213 199 185 176 167 168 173 176 180 182 177 176 176 177 179 183 184 191 191 193 198 201 190 190 193 197 201 199 192 194 200 204 180 192 192 198 204 228
243 247 249 261 264 264 256 253 240 190 222 217 200 178 163 165 169 168 169 171 177 177 176 174 174 179 182 192 198 198 204 200 195 191 192 196 202 209 203 197 193 198 207 199 204 181 192 198 218
238 247 245 253 260 253 252 258 245 200 202 211 180 160 158 163 155 149 155 162 171 175 174 171 175 182 185 194 199 202 204 199 206 201 192 195 199 208 211 202 196 200 207 202 196 189 199 213 229
223 226 222 223 232 246 245 245 233 178 168 180 162 148 161 152 143 145 153 159 164 169 166 170 173 182 189 195 200 202 207 208 211 207 199 198 203 204 204 204 194 202 205 200 199 195 204 207 218
214 222 228 233 238 245 237 236 198 157 138 140 137 135 152 145 143 143 147 152 159 161 162 167 170 182 189 196 199 204 207 209 213 214 212 209 209 210 198 195 192 199 201 205 196 197 201 206 212
215 223 237 250 264 260 230 211 156 138 138 138 139 141 156 145 140 141 145 148 154 160 162 165 166 177 188 194 194 200 204 208 211 210 214 222 215 215 202 194 194 197 200 207 191 199 202 196 201
233 224 233 248 265 269 241 202 194 169 164 153 148 146 152 139 140 141 142 142 148 154 150 153 154 167 178 181 187 194 194 203 204 208 213 214 221 222 199 198 195 193 195 199 196 195 202 194 196
220 228 233 243 254 265 262 244 157 156 159 155 147 145 142 131 125 127 133 136 145 149 150 150 148 153 164 174 180 184 178 190 199 199 206 205 213 209 202 198 192 189 186 191 191 196 194 193 195
217 225 224 232 244 257 261 203 104 143 158 146 141 129 115 112 115 115 124 127 136 141 142 145 150 158 163 166 164 175 174 173 187 199 199 191 194 190 190 191 188 189 188 188 185 193 191 187 190